Regional Weather Roundup
Issued by NWS Austin/San Antonio, TX

Home | Current Version | Previous Version | Text Only | Print | Product List | Glossary On
Versions: 1 2 3 4 5 6 7 8 9 10 11 12 13 14 15 16 17 18 19 20 21 22 23 24 25 26 27 28 29 30 31 32 33 34 35 36 37 38 39 40 41 42 43 44 45 46 47 48 49 50
000
ASUS44 KEWX 122002
RWREWX
SOUTH TEXAS REGIONAL WEATHER ROUNDUP
NATIONAL WEATHER SERVICE AUSTIN/SAN ANTONIO TX
300 PM CDT WED AUG 12 2020

NOTE: "FAIR" INDICATED FEW OR NO CLOUDS BELOW 12,000 FEET WITH NO
SIGNIFICANT WEATHER AND/OR OBSTRUCTIONS TO VISIBILITY.

* - THESE STATIONS ARE NOT NWS OR FAA STATIONS...AND ARE NOT SUBJECT
    TO NWS AND FAA QUALITY CONTROL.

TXZ171-172-183>190-122100-
TEXAS HILL COUNTRY AND EDWARDS PLATEAU

CITY           SKY/WX    TMP DP  RH WIND       PRES   REMARKS
JUNCTION       SUNNY     99  65  32 S8G23     29.95F HX 102
*LLANO         SUNNY    100  63  28 S8G14     29.92F HX 102
BURNET         SUNNY     98  62  30 S12G20    29.96F HX  99
*HORSESHOE BAY SUNNY    100  63  28 S7G16     29.93F HX 102
*LAGO VISTA    SUNNY     97  65  35 S8G18     29.96F HX  99
*KERRVILLE     SUNNY     97  65  34 S12       29.97F HX  99
*FREDERICKSBRG SUNNY     94  63  35 SW12      29.98F HX  95
*ROCKSPRINGS   SUNNY     93  64  38 SE15      30.05F HX  95
*BOERNE        SUNNY     91  64  40 SW9       29.98F HX  93
*CASTROVILLE   SUNNY    101  62  27 S8G17     29.94F HX 102
HONDO          SUNNY     99  66  33 S12G25    29.93F HX 103
*UVALDE        MOSUNNY   99  65  33 S15G21    29.94F HX 102
DEL RIO        SUNNY    102  66  30 S18G24    29.88F HX 106
*LAUGHLIN AFB  NOT AVBL
*SPOFFORD      NOT AVBL
*EAGLE PASS    SUNNY    104  61  24 S9G21     29.89F HX 105
CARRIZO SPRGS  SUNNY    100  64  30 SE13G18   29.88F HX 103
$$

TXZ173-191>194-202-209-217>225-228-122100-
CENTRAL AND SOUTH CENTRAL TEXAS

CITY           SKY/WX    TMP DP  RH WIND       PRES   REMARKS
GEORGETOWN     SUNNY     98  69  38 S13G21    29.94F HX 104
*TAYLOR        SUNNY     98  68  36 S12       29.92F HX 103
AUSTIN/BERGSTM MOSUNNY  100  69  36 S13G22    29.91F HX 106
AUSTIN/MABRY     N/A    102  65  29 VRB7      29.93F HX 105
*PFLUGERVILLE  SUNNY     99  66  34 SW13        N/A  HX 102
SAN MARCOS     MOSUNNY  100  67  33 S10       29.93F HX 105
NEW BRAUNFELS  SUNNY    101  67  32 SE9G21    29.92F HX 106
*RANDOLPH AFB  SUNNY     98  65  33 SW12G20   29.92F HX 100
*SEGUIN        NOT AVBL
SAN ANTONIO    MOSUNNY   99  68  36 SE13G20   29.93F HX 104
STINSON FIELD  MOSUNNY   97  67  37 VRB6G17   29.90F HX 101
*KELLY FIELD   SUNNY     99  67  34 S14       29.91F HX 104
*PLEASANTON    SUNNY    101  69  35 SE10G18   29.91F HX 107
*KENEDY        SUNNY     99  69  37 S12G17    29.92F HX 105
*LA GRANGE     MOSUNNY  100  71  38 S13       29.90F HX 108
*GIDDINGS      SUNNY    101  66  32 SW8G16    29.94F HX 105
*GONZALES      SUNNY    101  70  36 S9        29.91F HX 109
$$

TXZ163>164-176>182-195>201-210>213-226-227-235-122100-
SOUTHEAST TEXAS

CITY           SKY/WX    TMP DP  RH WIND       PRES   REMARKS
COLLEGE STN    MOSUNNY   97  71  42 S10       29.93F HX 104
*BRYAN         SUNNY     98  69  38 S8        29.95S HX 104
*CALDWELL      MOSUNNY   98  68  37 S5G20     29.93F HX 103
*CROCKETT      NOT AVBL
*BRENHAM       PTSUNNY   96  75  50 SE8       29.94F HX 108
HUNTSVILLE     MOSUNNY   98  69  38 VRB6      29.95F HX 104
CONROE         MOSUNNY   97  71  42 S7        29.95F HX 104
HOUSTON BUSH   MOSUNNY   98  71  41 S7        29.94F HX 106
HOUSTON HOBBY  MOSUNNY   95  71  45 S9        29.94F HX 102
*HOUSTON SW AP MOSUNNY   94  76  55 CALM      29.95F HX 105
PEARLAND       PTSUNNY   95  72  47 S7        29.96F HX 103
HOUSTON HOOKS  SUNNY     95  71  45 VRB6      29.94F HX 102
ELLINGTON FLD  MOSUNNY   93  75  55 CALM      29.93F HX 104
SUGAR LAND     MOSUNNY   96  73  47 VRB7      29.93F HX 105
*HOUSTON EXEC  MOSUNNY   95  75  52 S6G12     29.95F HX 107
*CLEVELAND MUN MOSUNNY   94  67  40 CALM      29.96F HX  97
*WHARTON       MOSUNNY   95  71  44 S8        29.95F HX 102
*COLUMBUS      FAIR      94  74  50 S5        29.94F HX 104
*EAGLE LAKE    MOSUNNY   97  73  45 S8        29.94  HX 107
$$

TXZ214>216-236>238-122100-
THE UPPER TEXAS COAST

CITY           SKY/WX    TMP DP  RH WIND       PRES   REMARKS
*ORANGE        MOSUNNY   94  76  56 S7        29.98F HX 107
PORT ARTHUR    PTSUNNY   95  78  58 VRB6      29.95F HX 111
GALVESTON      MOSUNNY   92  78  63 S14       29.97F HX 107
ANGLETON       MOSUNNY   93  76  57 VRB6      29.95F HX 105
*BAY CITY      SUNNY     93  76  58 S10       29.95F HX 106
PALACIOS       SUNNY     91  78  65 S15       29.95F HX 106
$$

TXZ229>234-239>247-122100-
TEXAS COASTAL BEND AND RIO GRANDE PLAINS

CITY           SKY/WX    TMP DP  RH WIND       PRES   REMARKS
VICTORIA       MOSUNNY   96  73  47 S13       29.93F HX 105
*BEEVILLE      MOSUNNY   99  74  45 S7G18     29.92F HX 110
ROCKPORT       MOSUNNY   94  77  57 SE14G21   29.94F HX 108
*PORT ARANSAS  MOSUNNY   90  79  71 S10       29.96F HX 106
*PORT LAVACA   NOT AVBL
*INGLESIDE     SUNNY     93  78  62 S15G24    29.94F HX 108
CORPUS CHRISTI MOSUNNY   94  78  60 SE16G25   29.93F HX 110
CORPUS NAS     MOSUNNY   92  75  57 SE16G24   29.94F HX 103
*ROBSTOWN      MOSUNNY  100  73  41 S12       29.93F HX 109
ALICE          SUNNY     98  72  42 SE7G20    29.91F HX 107
KINGSVILLE NAS MOSUNNY   98  74  45 SE15      29.91F HX 109
COTULLA        SUNNY    101  66  31 S13G24    29.89F HX 105
LAREDO         SUNNY    100  69  36 SE13G25   29.89F HX 106
$$

TXZ248>255-122100-
DEEP SOUTH TEXAS

CITY           SKY/WX    TMP DP  RH WIND       PRES   REMARKS
BROWNSVILLE    MOSUNNY   94  74  52 SE15G23   29.93F HX 104
PORT ISABEL      N/A    N/A N/A N/A MISG      29.92F
HARLINGEN      MOSUNNY   97  72  44 SE13      29.91F HX 105
*HEBBRONVILLE  MOSUNNY   96  65  36 S12G22    29.93F HX  99
MCALLEN        MOSUNNY   97  71  42 SE17      29.90F HX 104
*WESLACO       MOSUNNY   95  71  45 SE17G23   29.91F HX 102
FALFURRIAS     MOSUNNY   92  73  54 S15       29.91F HX 101
EDINBURG       MOSUNNY   95  70  43 S12G20    29.91F HX 101
*ZAPATA        SUNNY    100  67  34 SE13G18   29.90F HX 105
$$

TXZ213>215-236>238-242>244-246-247-251-254-255-122100-
CMAN STATIONS

STATION/POSITION TIME  TEMP    WIND        PRES    WAVE
                       AIR SEA DIR/SP/G            HT/PER
                 (UTC) (F)     (DEG/KT/KT) (MB)    (FT/S)
SABINE PASS      1930   90 89  210/  7/ 15 1017.0
NORTH JETTY/GLS  1930   87 89  190/ 12/ 14 1013.9
EAGLE POINT      1930   90 89  190/ 12/ 14 1014.2
MORGANS POINT    1930   91 89  160/  9/ 13 1014.5
PORT O`CONNOR    1930   86 90  170/ 12/ 14 1014.3
PORT ARANSAS     1900   86 88  140/ 10/ 11 1015.0
MALAQUITE BEACH  1930   85     120/ 14/ 15   N/A
BAFFIN BAY       1930   87 93  110/ 14/ 19 1013.5
PORT ISABEL      1924   89 86  140/ 13/ 19 1016.0
$$




USA.gov is the U.S. government's official web portal to all federal, state and local government web resources and services.